{"data":{"norad_id":48663,"intl_designator":"2021-044AB","name":"STARLINK-2667","alt_names":[],"object_type":"PAYLOAD","status":"ACTIVE","operator":null,"country":"US","launch_date":"2021-05-26","launch_site_code":"AFETR","launch_vehicle":null,"mission":null,"orbit_class":"UNKNOWN","rcs_meters":null,"size_class":null,"mass_kg":null,"dimensions":null,"purposes":["comms"],"wikipedia_slug":null,"has_3d_model":false,"image_url":null,"decayed_at":null,"tle_current":{"epoch":"2026-09-19T13:12:28.766880Z","epoch_age_seconds":119337,"freshness":"FRESH","line1":"1 48663U 21044AB  26262.55033295  .00001972  00000+0  75257-4 0  9996","line2":"2 48663  53.1591 281.7025 0001234  91.6628 268.4514 15.31711210293679","mean_motion":15.3171121,"eccentricity":0.0001234,"inclination_deg":53.1591,"raan_deg":281.7025,"arg_perigee_deg":91.6628,"mean_anomaly_deg":268.4514,"bstar":7.5257e-5,"rev_number":29367,"period_min":94.012499915046,"perigee_km":469.86143170512,"apogee_km":471.55172630042,"semimajor_km":6848.8435790028,"source":"CELESTRAK","updated_at":"2026-09-20T09:00:39.240116Z"}}}